KC3OXK Weather Reports


time (UTC)temp
C
wind
direction
speed
KPH
gust
KPH
rain 1hr
cm
rain 24hr
cm
rain mn
cm
humidity
%
barometer
mb
20260506033032 15 0 0.0 0.0 0.00 0.05 0.05 74 1008.6
20260506031537 15 0 0.0 0.0 0.00 0.05 0.05 72 1008.7
20260506030030 16 0 0.0 0.0 0.00 0.05 0.05 70 1008.6
20260506024537 17 0 0.0 0.0 0.00 0.05 0.05 66 1008.7
20260506023027 17 0 0.0 0.0 0.00 0.05 0.05 63 1008.7
20260506021529 18 0 0.0 1.6 0.00 0.05 0.05 60 1008.7
20260506020028 18 299 0.0 1.6 0.00 0.05 0.05 57 1008.8
20260506014528 20 299 0.0 1.6 0.00 0.05 0.05 53 1008.7
20260506013032 21 299 0.0 3.2 0.00 0.05 0.05 50 1008.4
20260506011557 21 307 0.0 3.2 0.00 0.05 0.05 48 1008.3
20260506010030 21 0 0.0 1.6 0.00 0.05 0.05 48 1008.1
20260506004528 22 0 0.0 8.0 0.00 0.05 0.05 45 1007.9
20260506003030 23 231 1.6 14.5 0.00 0.05 0.05 45 1007.8
20260506001529 23 293 1.6 19.3 0.00 0.05 0.05 45 1007.4
20260506000045 24 242 11.3 22.5 0.00 0.05 0.05 43 1007.2
20260505234541 25 195 16.1 32.2 0.00 0.05 0.05 42 1007.0
20260505233031 25 203 14.5 33.8 0.00 0.05 0.05 41 1006.9
20260505231529 25 224 8.0 19.3 0.00 0.05 0.05 43 1006.8
20260505230050 25 229 6.4 17.7 0.00 0.05 0.05 43 1006.5
20260505224538 25 239 12.9 30.6 0.00 0.05 0.05 42 1006.5
20260505223028 25 198 11.3 27.4 0.00 0.05 0.05 41 1006.4
20260505221530 25 214 9.7 24.1 0.00 0.05 0.05 42 1006.6
20260505220027 25 236 16.1 30.6 0.00 0.05 0.05 41 1006.6
20260505214531 26 241 17.7 32.2 0.00 0.05 0.05 39 1006.5
20260505213030 26 257 12.9 30.6 0.00 0.05 0.05 39 1006.4
20260505211535 26 242 12.9 30.6 0.00 0.05 0.05 40 1006.3
20260505210031 26 220 16.1 32.2 0.00 0.05 0.05 39 1006.4
20260505204542 26 248 14.5 32.2 0.00 0.05 0.05 38 1006.3
20260505203031 26 221 19.3 37.0 0.00 0.05 0.05 36 1006.3
20260505201531 26 214 22.5 38.6 0.00 0.05 0.05 36 1006.4
20260505200030 26 221 19.3 37.0 0.00 0.05 0.05 38 1006.5
20260505194536 26 164 17.7 38.6 0.00 0.05 0.05 38 1006.8
20260505193027 26 214 19.3 33.8 0.00 0.05 0.05 39 1006.9
20260505191531 26 219 16.1 35.4 0.00 0.05 0.05 37 1007.0
20260505190036 26 213 19.3 33.8 0.00 0.05 0.05 39 1007.0
20260505184533 26 189 22.5 33.8 0.00 0.05 0.05 40 1007.3
20260505183030 26 209 17.7 33.8 0.00 0.05 0.05 41 1007.6
20260505181535 25 240 11.3 33.8 0.00 0.05 0.05 44 1007.9
20260505180040 26 230 19.3 29.0 0.00 0.05 0.05 45 1008.1
20260505174533 25 191 12.9 30.6 0.00 0.05 0.05 46 1008.1
20260505173030 25 187 14.5 29.0 0.00 0.05 0.05 47 1008.3
20260505171528 25 182 16.1 30.6 0.00 0.05 0.05 47 1008.4
20260505170030 25 217 12.9 30.6 0.00 0.05 0.05 47 1008.4
20260505164528 25 233 12.9 30.6 0.00 0.05 0.05 48 1008.7
20260505163028 25 255 12.9 24.1 0.00 0.05 0.05 47 1008.8
20260505161532 24 246 12.9 24.1 0.00 0.05 0.05 48 1009.2
20260505153028 23 191 11.3 20.9 0.00 0.05 0.05 50 1009.4
20260505151534 23 244 14.5 29.0 0.00 0.05 0.05 50 1009.5
20260505124542 17 245 8.0 14.5 0.00 0.05 0.05 66 1010.3
20260505123033 17 257 4.8 9.7 0.00 0.05 0.05 69 1010.5
20260505121559 17 248 3.2 8.0 0.00 0.05 0.05 71 1010.3
20260505120029 17 0 0.0 1.6 0.00 0.05 0.05 75 1010.3
20260505114533 16 0 0.0 0.0 0.00 0.05 0.05 78 1010.4
20260505113032 16 0 0.0 3.2 0.00 0.05 0.05 80 1010.0
20260505111536 15 0 0.0 8.0 0.00 0.05 0.05 80 1010.0
20260505101528 11 0 0.0 0.0 0.00 0.05 0.05 91 1009.8
20260505100038 11 0 0.0 0.0 0.00 0.05 0.05 90 1009.5
20260505094528 11 0 0.0 0.0 0.00 0.05 0.05 89 1009.3
20260505093033 11 0 0.0 0.0 0.00 0.05 0.05 89 1009.4
20260505091535 11 0 0.0 0.0 0.00 0.05 0.05 88 1009.2
20260505090030 11 0 0.0 0.0 0.00 0.05 0.05 88 1009.3
20260505084530 12 0 0.0 0.0 0.00 0.05 0.05 87 1009.2
20260505083041 12 302 0.0 0.0 0.00 0.05 0.05 86 1009.2
20260505081532 12 0 0.0 1.6 0.00 0.05 0.05 85 1009.2
20260505080043 13 318 0.0 3.2 0.00 0.05 0.05 84 1009.0
20260505074527 13 311 0.0 3.2 0.03 0.05 0.05 84 1008.9
20260505073027 13 288 1.6 4.8 0.05 0.05 0.05 83 1008.8
20260505071537 14 290 1.6 4.8 0.05 0.05 0.05 82 1008.7
20260505070030 14 271 1.6 3.2 0.05 0.05 0.05 83 1008.7
20260505064530 16 0 0.0 3.2 0.03 0.03 0.03 74 1009.2
20260505063042 16 0 0.0 0.0 0.00 0.00 0.00 69 1008.7
20260505061533 16 0 0.0 1.6 0.00 0.00 0.00 66 1008.8
20260505060032 16 0 0.0 3.2 0.00 0.00 0.00 66 1008.9
20260505054538 17 269 0.0 6.4 0.00 0.00 0.00 63 1009.0
20260505053028 16 277 0.0 1.6 0.00 0.00 0.00 62 1009.1
20260505051537 16 0 0.0 1.6 0.00 0.00 0.00 63 1009.1
20260505041543 17 278 0.0 8.0 0.00 0.00 0.00 60 1008.9
20260505040034 17 273 0.0 6.4 0.00 0.00 0.00 59 1008.6
20260505034529 17 0 0.0 9.7 0.00 0.00 0.00 58 1008.6